When you browse on this site, cookies collect data to enhance your experience and personalize the content and advertising you see.
Visit our Privacy Policy to learn more. By continuing to use the site, you agree to this use of cookies and data.
  • In Spain
  • List of Countries
  • For 7 days
  • Water Temperature
  • Weather Map
  • Weather Widgets
  • user-avatar
    Login

    Hourly Weather Limache

    Today, 4 April, Saturday

    Time Temperature Precipitation Wind Pressure Humidity
    00:00 +13°C° 0 mm 0 mps 746 mmHg 75%
    01:00 +14°C° 0 mm 1 mps 745 mmHg 73%
    02:00 +13°C° 0 mm 0 mps 745 mmHg 70%
    03:00 +12°C° 0 mm 0 mps 745 mmHg 68%
    04:00 +12°C° 0 mm 0 mps 744 mmHg 66%
    05:00 +14°C° 0 mm 0 mps 745 mmHg 63%
    06:00 +15°C° 0 mm 0 mps 745 mmHg 61%
    07:00 +16°C° 0 mm 0 mps 745 mmHg 58%
    08:00 +21°C° 0 mm 1 mps 746 mmHg 51%
    09:00 +24°C° 0 mm 2 mps 746 mmHg 43%
    10:00 +27°C° 0 mm 2 mps 746 mmHg 36%
    11:00 +27°C° 0 mm 3 mps 746 mmHg 38%
    12:00 +27°C° 0 mm 3 mps 746 mmHg 39%
    13:00 +28°C° 0 mm 3 mps 746 mmHg 40%
    14:00 +26°C° 0 mm 3 mps 746 mmHg 45%
    15:00 +25°C° 0 mm 3 mps 746 mmHg 49%
    16:00 +24°C° 0 mm 2 mps 746 mmHg 53%
    17:00 +20°C° 0 mm 2 mps 746 mmHg 65%
    18:00 +16°C° 0 mm 1 mps 747 mmHg 78%
    19:00 +12°C° 0 mm 0 mps 747 mmHg 90%
    20:00 +12°C° 0 mm 0 mps 747 mmHg 90%
    21:00 +12°C° 0 mm 0 mps 747 mmHg 90%
    22:00 +12°C° 0 mm 0 mps 748 mmHg 90%
    23:00 +12°C° 0 mm 0 mps 747 mmHg 90%

    Tomorrow, 5 April, Sunday

    Time Temperature Precipitation Wind Pressure Humidity
    00:00 +11°C° 0 mm 0 mps 747 mmHg 89%
    01:00 +11°C° 0 mm 0 mps 747 mmHg 89%
    02:00 +11°C° 0 mm 0 mps 747 mmHg 88%
    03:00 +11°C° 0 mm 0 mps 748 mmHg 88%
    04:00 +11°C° 0 mm 0 mps 748 mmHg 88%
    05:00 +12°C° 0 mm 0 mps 748 mmHg 83%
    06:00 +14°C° 0 mm 0 mps 749 mmHg 79%
    07:00 +15°C° 0 mm 0 mps 749 mmHg 74%
    08:00 +20°C° 0 mm 1 mps 749 mmHg 63%
    09:00 +23°C° 0 mm 1 mps 750 mmHg 51%
    10:00 +26°C° 0 mm 2 mps 750 mmHg 40%
    11:00 +26°C° 0 mm 2 mps 750 mmHg 37%
    12:00 +27°C° 0 mm 3 mps 750 mmHg 34%
    13:00 +28°C° 0 mm 3 mps 750 mmHg 31%
    14:00 +27°C° 0 mm 3 mps 750 mmHg 32%
    15:00 +27°C° 0 mm 3 mps 750 mmHg 33%
    16:00 +26°C° 0 mm 2 mps 750 mmHg 34%
    17:00 +21°C° 0 mm 2 mps 750 mmHg 47%
    18:00 +18°C° 0 mm 1 mps 750 mmHg 60%
    19:00 +13°C° 0 mm 1 mps 750 mmHg 73%
    20:00 +13°C° 0 mm 1 mps 750 mmHg 71%
    21:00 +14°C° 0 mm 1 mps 750 mmHg 69%
    22:00 +14°C° 0 mm 1 mps 750 mmHg 68%
    23:00 +14°C° 0 mm 1 mps 750 mmHg 65%

    Day after tomorrow, 6 April, Monday

    Time Temperature Precipitation Wind Pressure Humidity
    00:00 +14°C° 0 mm 1 mps 750 mmHg 62%
    01:00 +14°C° 0 mm 1 mps 750 mmHg 60%
    02:00 +14°C° 0 mm 1 mps 750 mmHg 59%
    03:00 +14°C° 0 mm 1 mps 750 mmHg 59%
    04:00 +14°C° 0 mm 1 mps 750 mmHg 58%
    05:00 +15°C° 0 mm 0 mps 750 mmHg 53%
    06:00 +17°C° 0 mm 0 mps 750 mmHg 47%
    07:00 +18°C° 0 mm 0 mps 750 mmHg 42%
    08:00 +23°C° 0 mm 1 mps 750 mmHg 36%
    09:00 +26°C° 0 mm 1 mps 750 mmHg 30%
    10:00 +30°C° 0 mm 2 mps 750 mmHg 23%
    11:00 +30°C° 0 mm 2 mps 750 mmHg 23%
    12:00 +31°C° 0 mm 3 mps 750 mmHg 23%
    13:00 +31°C° 0 mm 3 mps 750 mmHg 22%
    14:00 +30°C° 0 mm 3 mps 749 mmHg 25%
    15:00 +29°C° 0 mm 3 mps 749 mmHg 27%
    16:00 +28°C° 0 mm 2 mps 749 mmHg 30%
    17:00 +24°C° 0 mm 2 mps 749 mmHg 42%
    18:00 +20°C° 0 mm 1 mps 749 mmHg 54%
    19:00 +14°C° 0 mm 0 mps 749 mmHg 66%
    20:00 +14°C° 0 mm 0 mps 749 mmHg 66%
    21:00 +14°C° 0 mm 0 mps 749 mmHg 65%
    22:00 +13°C° 0 mm 0 mps 749 mmHg 65%
    23:00 +13°C° 0 mm 0 mps 749 mmHg 64%

    7 April, Tuesday

    Time Temperature Precipitation Wind Pressure Humidity
    00:00 +13°C° 0 mm 0 mps 748 mmHg 63%
    01:00 +13°C° 0 mm 0 mps 748 mmHg 62%
    02:00 +13°C° 0 mm 0 mps 748 mmHg 62%
    03:00 +13°C° 0 mm 0 mps 748 mmHg 61%
    04:00 +13°C° 0 mm 0 mps 748 mmHg 61%
    05:00 +15°C° 0 mm 0 mps 748 mmHg 55%
    06:00 +17°C° 0 mm 0 mps 748 mmHg 50%
    07:00 +19°C° 0 mm 0 mps 748 mmHg 45%
    08:00 +24°C° 0 mm 1 mps 748 mmHg 38%
    09:00 +27°C° 0 mm 1 mps 748 mmHg 31%
    10:00 +30°C° 0 mm 2 mps 748 mmHg 24%
    11:00 +30°C° 0 mm 2 mps 748 mmHg 24%
    12:00 +31°C° 0 mm 3 mps 748 mmHg 23%
    13:00 +33°C° 0 mm 3 mps 748 mmHg 23%
    14:00 +30°C° 0 mm 3 mps 748 mmHg 25%
    15:00 +29°C° 0 mm 2 mps 748 mmHg 27%
    16:00 +28°C° 0 mm 2 mps 748 mmHg 29%
    17:00 +24°C° 0 mm 1 mps 748 mmHg 41%
    18:00 +20°C° 0 mm 1 mps 748 mmHg 53%
    19:00 +14°C° 0 mm 0 mps 748 mmHg 64%
    20:00 +14°C° 0 mm 0 mps 748 mmHg 64%
    21:00 +14°C° 0 mm 0 mps 748 mmHg 63%
    22:00 +14°C° 0 mm 0 mps 748 mmHg 62%
    23:00 +14°C° 0 mm 0 mps 748 mmHg 62%

    8 April, Wednesday

    Time Temperature Precipitation Wind Pressure Humidity
    00:00 +14°C° 0 mm 0 mps 748 mmHg 62%
    01:00 +13°C° 0 mm 0 mps 748 mmHg 61%
    02:00 +13°C° 0 mm 0 mps 748 mmHg 61%
    03:00 +13°C° 0 mm 0 mps 748 mmHg 62%
    04:00 +13°C° 0 mm 0 mps 747 mmHg 62%
    05:00 +15°C° 0 mm 0 mps 748 mmHg 56%
    06:00 +17°C° 0 mm 0 mps 748 mmHg 51%
    07:00 +19°C° 0 mm 0 mps 748 mmHg 46%
    08:00 +24°C° 0 mm 1 mps 748 mmHg 40%
    09:00 +26°C° 0 mm 1 mps 748 mmHg 33%
    10:00 +29°C° 0 mm 2 mps 748 mmHg 27%
    11:00 +30°C° 0 mm 3 mps 748 mmHg 28%
    12:00 +30°C° 0 mm 3 mps 748 mmHg 28%
    13:00 +30°C° 0 mm 3 mps 749 mmHg 29%
    14:00 +29°C° 0 mm 3 mps 748 mmHg 32%
    15:00 +27°C° 0 mm 3 mps 748 mmHg 35%
    16:00 +26°C° 0 mm 2 mps 748 mmHg 38%
    17:00 +22°C° 0 mm 1 mps 748 mmHg 50%
    18:00 +19°C° 0 mm 1 mps 749 mmHg 63%
    19:00 +13°C° 0 mm 0 mps 749 mmHg 76%
    20:00 +13°C° 0 mm 0 mps 749 mmHg 76%
    21:00 +12°C° 0 mm 0 mps 749 mmHg 76%
    22:00 +12°C° 0 mm 0 mps 749 mmHg 76%
    23:00 +12°C° 0 mm 0 mps 749 mmHg 76%

    9 April, Thursday

    Time Temperature Precipitation Wind Pressure Humidity
    00:00 +12°C° 0 mm 0 mps 749 mmHg 76%
    01:00 +11°C° 0 mm 0 mps 748 mmHg 77%
    02:00 +11°C° 0 mm 0 mps 748 mmHg 78%
    03:00 +11°C° 0 mm 0 mps 748 mmHg 79%
    04:00 +11°C° 0 mm 0 mps 748 mmHg 80%
    05:00 +12°C° 0 mm 0 mps 749 mmHg 75%
    06:00 +14°C° 0 mm 0 mps 749 mmHg 70%
    07:00 +16°C° 0 mm 0 mps 750 mmHg 66%
    08:00 +21°C° 0 mm 1 mps 750 mmHg 57%
    09:00 +23°C° 0 mm 2 mps 750 mmHg 48%
    10:00 +26°C° 0 mm 2 mps 750 mmHg 40%
    11:00 +26°C° 0 mm 3 mps 750 mmHg 40%
    12:00 +27°C° 0 mm 3 mps 750 mmHg 39%
    13:00 +28°C° 0 mm 3 mps 750 mmHg 39%
    14:00 +26°C° 0 mm 3 mps 750 mmHg 44%
    15:00 +25°C° 0 mm 3 mps 750 mmHg 48%
    16:00 +24°C° 0 mm 2 mps 750 mmHg 52%
    17:00 +20°C° 0 mm 2 mps 750 mmHg 65%
    18:00 +16°C° 0 mm 1 mps 750 mmHg 78%
    19:00 +12°C° 0 mm 0 mps 751 mmHg 91%
    20:00 +12°C° 0 mm 0 mps 751 mmHg 92%
    21:00 +11°C° 0 mm 0 mps 751 mmHg 93%
    22:00 +11°C° 0 mm 0 mps 751 mmHg 94%
    23:00 +11°C° 0 mm 0 mps 751 mmHg 92%
    Show more